• In Portugal
  • List of Countries
  • For 7 days
  • Water Temperature
  • Satellite Maps
  • Weather Map
  • Weather Widgets
  • user-avatar
    Login

    Hourly Weather Santa Cruz

    Today, 14 November, Wednesday

    Time Temperature Precipitation Wind Pressure Humidity
    00:00 +28°C° 0 mm 3 mps 720 mmHg 77%
    01:00 +27°C° 0 mm 3 mps 720 mmHg 79%
    02:00 +27°C° 0 mm 3 mps 720 mmHg 81%
    03:00 +27°C° 0 mm 2 mps 720 mmHg 83%
    04:00 +26°C° 0 mm 2 mps 720 mmHg 85%
    05:00 +26°C° 0 mm 1 mps 720 mmHg 87%
    06:00 +26°C° 0.4 mm 1 mps 721 mmHg 87%
    07:00 +26°C° 0.4 mm 1 mps 721 mmHg 87%
    08:00 +27°C° 0.4 mm 1 mps 722 mmHg 87%
    09:00 +26°C° 1 mm 2 mps 722 mmHg 86%
    10:00 +26°C° 1 mm 2 mps 722 mmHg 86%
    11:00 +26°C° 1 mm 2 mps 722 mmHg 86%
    12:00 +28°C° 0.3 mm 3 mps 722 mmHg 78%
    13:00 +29°C° 0.3 mm 3 mps 721 mmHg 70%
    14:00 +30°C° 0.3 mm 4 mps 721 mmHg 61%
    15:00 +29°C° 0 mm 4 mps 721 mmHg 63%
    16:00 +29°C° 0 mm 4 mps 720 mmHg 64%
    17:00 +28°C° 0 mm 4 mps 720 mmHg 65%
    18:00 +27°C° 0.2 mm 4 mps 721 mmHg 70%
    19:00 +25°C° 0.2 mm 3 mps 721 mmHg 74%
    20:00 +24°C° 0.2 mm 3 mps 722 mmHg 79%
    21:00 +24°C° 0.7 mm 3 mps 722 mmHg 81%
    22:00 +22°C° 0.7 mm 3 mps 723 mmHg 83%
    23:00 +22°C° 0.7 mm 3 mps 723 mmHg 85%

    Tomorrow, 15 November, Thursday

    Time Temperature Precipitation Wind Pressure Humidity
    00:00 +23°C° 0.3 mm 2 mps 723 mmHg 85%
    01:00 +21°C° 0.3 mm 2 mps 722 mmHg 85%
    02:00 +21°C° 0.3 mm 2 mps 721 mmHg 85%
    03:00 +21°C° 0.2 mm 2 mps 721 mmHg 85%
    04:00 +21°C° 0.2 mm 2 mps 721 mmHg 85%
    05:00 +22°C° 0.2 mm 1 mps 721 mmHg 85%
    06:00 +23°C° 0 mm 2 mps 722 mmHg 80%
    07:00 +24°C° 0 mm 2 mps 722 mmHg 76%
    08:00 +25°C° 0 mm 2 mps 723 mmHg 71%
    09:00 +27°C° 0 mm 2 mps 723 mmHg 62%
    10:00 +29°C° 0 mm 2 mps 723 mmHg 54%
    11:00 +31°C° 0 mm 1 mps 724 mmHg 45%
    12:00 +32°C° 0 mm 2 mps 723 mmHg 45%
    13:00 +32°C° 0 mm 2 mps 722 mmHg 45%
    14:00 +32°C° 0 mm 2 mps 721 mmHg 45%
    15:00 +32°C° 0 mm 2 mps 720 mmHg 48%
    16:00 +32°C° 0 mm 2 mps 720 mmHg 50%
    17:00 +31°C° 0 mm 3 mps 719 mmHg 52%
    18:00 +30°C° 0 mm 2 mps 719 mmHg 57%
    19:00 +28°C° 0 mm 2 mps 720 mmHg 63%
    20:00 +27°C° 0 mm 2 mps 720 mmHg 68%
    21:00 +26°C° 0 mm 2 mps 720 mmHg 69%
    22:00 +26°C° 0 mm 2 mps 721 mmHg 70%
    23:00 +26°C° 0 mm 2 mps 721 mmHg 70%

    Day after tomorrow, 16 November, Friday

    Time Temperature Precipitation Wind Pressure Humidity
    00:00 +25°C° 0 mm 2 mps 720 mmHg 72%
    01:00 +25°C° 0 mm 2 mps 720 mmHg 74%
    02:00 +24°C° 0 mm 2 mps 719 mmHg 75%
    03:00 +24°C° 0 mm 2 mps 720 mmHg 77%
    04:00 +24°C° 0 mm 2 mps 720 mmHg 79%
    05:00 +23°C° 0 mm 2 mps 720 mmHg 80%
    06:00 +25°C° 0 mm 2 mps 720 mmHg 75%
    07:00 +27°C° 0 mm 2 mps 721 mmHg 69%
    08:00 +29°C° 0 mm 2 mps 722 mmHg 63%
    09:00 +31°C° 0 mm 3 mps 722 mmHg 57%
    10:00 +34°C° 0 mm 3 mps 722 mmHg 50%
    11:00 +36°C° 0 mm 4 mps 722 mmHg 43%
    12:00 +37°C° 0 mm 4 mps 721 mmHg 41%
    13:00 +38°C° 0 mm 4 mps 720 mmHg 38%
    14:00 +40°C° 0 mm 4 mps 719 mmHg 35%
    15:00 +38°C° 0 mm 4 mps 719 mmHg 37%
    16:00 +38°C° 0 mm 4 mps 719 mmHg 38%
    17:00 +37°C° 0 mm 3 mps 718 mmHg 40%
    18:00 +35°C° 0 mm 3 mps 719 mmHg 45%
    19:00 +32°C° 0 mm 2 mps 719 mmHg 51%
    20:00 +30°C° 0 mm 2 mps 720 mmHg 56%
    21:00 +29°C° 0 mm 2 mps 720 mmHg 59%
    22:00 +29°C° 0 mm 2 mps 720 mmHg 61%
    23:00 +28°C° 0 mm 2 mps 720 mmHg 64%

    17 November, Saturday

    Time Temperature Precipitation Wind Pressure Humidity
    00:00 +28°C° 0 mm 2 mps 720 mmHg 65%
    01:00 +27°C° 0 mm 2 mps 719 mmHg 67%
    02:00 +27°C° 0 mm 2 mps 719 mmHg 69%
    03:00 +26°C° 0 mm 2 mps 719 mmHg 70%
    04:00 +26°C° 0 mm 2 mps 719 mmHg 70%
    05:00 +26°C° 0 mm 2 mps 719 mmHg 71%
    06:00 +28°C° 0 mm 3 mps 720 mmHg 66%
    07:00 +29°C° 0 mm 3 mps 720 mmHg 60%
    08:00 +32°C° 0 mm 4 mps 721 mmHg 55%
    09:00 +34°C° 0 mm 4 mps 720 mmHg 49%
    10:00 +36°C° 0 mm 5 mps 720 mmHg 43%
    11:00 +39°C° 0 mm 6 mps 720 mmHg 37%
    12:00 +39°C° 0 mm 6 mps 719 mmHg 35%
    13:00 +40°C° 0 mm 6 mps 718 mmHg 33%
    14:00 +41°C° 0 mm 6 mps 716 mmHg 32%
    15:00 +40°C° 0 mm 6 mps 716 mmHg 33%
    16:00 +40°C° 0 mm 5 mps 716 mmHg 34%
    17:00 +39°C° 0 mm 5 mps 715 mmHg 36%
    18:00 +37°C° 0 mm 5 mps 716 mmHg 39%
    19:00 +35°C° 0 mm 4 mps 717 mmHg 43%
    20:00 +34°C° 0 mm 3 mps 717 mmHg 47%
    21:00 +33°C° 0 mm 4 mps 718 mmHg 50%
    22:00 +33°C° 0 mm 4 mps 718 mmHg 53%
    23:00 +32°C° 0 mm 4 mps 718 mmHg 55%

    18 November, Sunday

    Time Temperature Precipitation Wind Pressure Humidity
    00:00 +30°C° 0 mm 4 mps 718 mmHg 58%
    01:00 +30°C° 0 mm 4 mps 717 mmHg 61%
    02:00 +29°C° 0 mm 4 mps 717 mmHg 64%
    03:00 +29°C° 0 mm 5 mps 717 mmHg 66%
    04:00 +29°C° 0 mm 5 mps 717 mmHg 68%
    05:00 +29°C° 0 mm 5 mps 717 mmHg 70%
    06:00 +29°C° 0 mm 5 mps 718 mmHg 67%
    07:00 +30°C° 0 mm 5 mps 719 mmHg 64%
    08:00 +32°C° 0 mm 5 mps 719 mmHg 60%
    09:00 +34°C° 0 mm 5 mps 720 mmHg 53%
    10:00 +36°C° 0 mm 5 mps 720 mmHg 46%
    11:00 +39°C° 0 mm 5 mps 720 mmHg 39%
    12:00 +40°C° 0.1 mm 4 mps 720 mmHg 38%
    13:00 +39°C° 0.1 mm 3 mps 719 mmHg 37%
    14:00 +40°C° 0.1 mm 3 mps 719 mmHg 36%
    15:00 +35°C° 2.3 mm 3 mps 719 mmHg 54%
    16:00 +29°C° 2.3 mm 4 mps 719 mmHg 72%
    17:00 +25°C° 2.3 mm 5 mps 720 mmHg 90%
    18:00 +23°C° 1.1 mm 5 mps 721 mmHg 89%
    19:00 +22°C° 1.1 mm 5 mps 722 mmHg 88%
    20:00 +22°C° 1.1 mm 5 mps 723 mmHg 87%
    21:00 +22°C° 0.1 mm 6 mps 724 mmHg 84%
    22:00 +22°C° 0.1 mm 6 mps 724 mmHg 80%
    23:00 +22°C° 0.1 mm 6 mps 725 mmHg 76%

    19 November, Monday

    Time Temperature Precipitation Wind Pressure Humidity
    00:00 +21°C° 0.5 mm 5 mps 724 mmHg 79%
    01:00 +21°C° 0.5 mm 4 mps 724 mmHg 81%
    02:00 +21°C° 0.5 mm 4 mps 723 mmHg 83%
    03:00 +21°C° 0.3 mm 4 mps 723 mmHg 83%
    04:00 +21°C° 0.3 mm 4 mps 723 mmHg 83%
    05:00 +21°C° 0.3 mm 4 mps 724 mmHg 84%
    06:00 +21°C° 0.1 mm 4 mps 724 mmHg 82%
    07:00 +21°C° 0.1 mm 4 mps 725 mmHg 80%
    08:00 +22°C° 0.1 mm 4 mps 726 mmHg 78%
    09:00 +23°C° 0 mm 4 mps 726 mmHg 73%
    10:00 +25°C° 0 mm 4 mps 726 mmHg 68%
    11:00 +26°C° 0 mm 4 mps 726 mmHg 63%
    12:00 +27°C° 0 mm 3 mps 725 mmHg 59%
    13:00 +28°C° 0 mm 3 mps 724 mmHg 56%
    14:00 +28°C° 0 mm 3 mps 723 mmHg 52%
    15:00 +28°C° 0 mm 2 mps 723 mmHg 53%
    16:00 +28°C° 0 mm 2 mps 722 mmHg 53%
    17:00 +28°C° 0 mm 1 mps 722 mmHg 54%
    18:00 +27°C° 0 mm 1 mps 722 mmHg 58%
    19:00 +26°C° 0 mm 1 mps 722 mmHg 62%
    20:00 +24°C° 0 mm 1 mps 723 mmHg 67%
    21:00 +24°C° 0 mm 1 mps 723 mmHg 68%
    22:00 +24°C° 0 mm 1 mps 723 mmHg 70%
    23:00 +21°C° 0 mm 0 mps 723 mmHg 72%
    Show more